QPF
0.02 0.01 0.00 0.00 0.01 0.01 0.02 0.03 0.04 0.04 0.04 0.05 0.06 0.06 0.08 0.09 0.09 0.06 0.04 0.04 0.03 0.02 0.02 0.01 0.01 0.01 0.01 0.01 0.02 0.03 0.03 0.04 0.06 0.08 0.09 0.10 0.13 0.16
0.02 0.02 0.01 0.01 0.01 0.01 0.02 0.03 0.05 0.05 0.04 0.05 0.06 0.09 0.10 0.09 0.08 0.06 0.04 0.03 0.02 0.01 0.01 0.01 0.00 0.01 0.00 0.00 0.01 0.02 0.03 0.04 0.05 0.06 0.08 0.10 0.11 0.13
0.03 0.03 0.02 0.01 0.01 0.01 0.01 0.02 0.04 0.05 0.04 0.05 0.07 0.11 0.13 0.11 0.08 0.05 0.04 0.03 0.02 0.01 0.01 0.01 0.01 0.01 0.00 0.00 0.01 0.01 0.02 0.03 0.03 0.05 0.06 0.07 0.08 0.09
0.04 0.03 0.02 0.01 0.01 0.01 0.01 0.02 0.04 0.05 0.05 0.06 0.07 0.09 0.11 0.10 0.08 0.06 0.04 0.02 0.01 0.01 0.00 0.01 0.01 0.00 0.00 0.00 0.01 0.01 0.01 0.01 0.02 0.04 0.04 0.05 0.06 0.08
0.04 0.03 0.02 0.02 0.01 0.01 0.01 0.02 0.03 0.05 0.06 0.07 0.07 0.08 0.10 0.08 0.05 0.05 0.05 0.03 0.01 0.01 0.01 0.01 0.00 0.00 0.01 0.01 0.01 0.01 0.01 0.01 0.01 0.03 0.05 0.05 0.06 0.08
0.04 0.03 0.03 0.02 0.02 0.02 0.02 0.02 0.04 0.05 0.06 0.07 0.08 0.09 0.08 0.07 0.05 0.04 0.04 0.03 0.02 0.01 0.01 0.01 0.01 0.00 0.00 0.01 0.01 0.01 0.02 0.02 0.02 0.02 0.02 0.04 0.04 0.04
0.04 0.03 0.03 0.02 0.02 0.02 0.02 0.02 0.03 0.03 0.04 0.06 0.07 0.11 0.11 0.09 0.06 0.04 0.03 0.02 0.02 0.01 0.01 0.01 0.01 0.01 0.00 0.00 0.01 0.01 0.01 0.01 0.02 0.02 0.02 0.01 0.01 0.01
0.04 0.03 0.03 0.02 0.02 0.02 0.02 0.02 0.02 0.03 0.03 0.04 0.06 0.07 0.10 0.10 0.09 0.05 0.03 0.02 0.02 0.01 0.01 0.01 0.01 0.01 0.01 0.00 0.00 0.00 0.00 0.01 0.01 0.01 0.01 0.01 0.01 0.01
0.05 0.04 0.03 0.02 0.02 0.02 0.01 0.01 0.01 0.02 0.03 0.04 0.04 0.04 0.07 0.07 0.07 0.05 0.03 0.02 0.01 0.01 0.01 0.01 0.01 0.01 0.00 0.00 0.00 0.00 0.00 0.00 0.00 0.00 0.01 0.01 0.01 0.01
0.05 0.05 0.03 0.03 0.02 0.02 0.01 0.01 0.01 0.01 0.03 0.04 0.05 0.06 0.07 0.08 0.06 0.05 0.03 0.02 0.01 0.01 0.01 0.01 0.00 0.00 0.00 0.00 0.00 0.00 0.00 0.00 0.00 0.00 0.00 0.00 0.00 0.00
0.06 0.06 0.04 0.03 0.03 0.02 0.02 0.02 0.01 0.02 0.03 0.05 0.08 0.09 0.09 0.08 0.07 0.05 0.03 0.02 0.01 0.01 0.01 0.00 0.00 0.00 0.00 0.00 0.00 0.00 0.00 0.00 0.00 0.00 0.00 0.00 0.00 0.00
0.09 0.08 0.06 0.04 0.03 0.02 0.02 0.03 0.02 0.02 0.02 0.03 0.06 0.08 0.08 0.07 0.06 0.04 0.03 0.02 0.01 0.01 0.01 0.00 0.00 0.00 0.00 0.00 0.00 0.00 0.00 0.00 0.00 0.00 0.00 0.00 0.00 0.00
0.13 0.12 0.08 0.06 0.05 0.04 0.03 0.03 0.04 0.04 0.03 0.03 0.04 0.06 0.08 0.08 0.06 0.03 0.02 0.01 0.01 0.01 0.00 0.00 0.00 0.00 0.00 0.00 0.00 0.00 0.00 0.00 0.00 0.00 0.00 0.00 0.00 0.00
0.17 0.16 0.12 0.09 0.07 0.05 0.04 0.04 0.05 0.05 0.05 0.03 0.04 0.05 0.06 0.07 0.05 0.02 0.01 0.00 0.00 0.00 0.00 0.00 0.00 0.00 0.00 0.00 0.00 0.00 0.00 0.00 0.00 0.00 0.00 0.00 0.00 0.00
0.22 0.24 0.18 0.14 0.11 0.07 0.05 0.04 0.04 0.04 0.06 0.04 0.03 0.04 0.04 0.04 0.03 0.02 0.01 0.00 0.00 0.00 0.00 0.00 0.00 0.00 0.00 0.00 0.00 0.00 0.00 0.00 0.00 0.00 0.00 0.00 0.00 0.00
0.26 0.29 0.25 0.18 0.14 0.09 0.06 0.04 0.04 0.05 0.05 0.05 0.03 0.02 0.02 0.02 0.01 0.01 0.00 0.00 0.00 0.00 0.00 0.00 0.00 0.00 0.00 0.00 0.00 0.00 0.00 0.00 0.00 0.00 0.00 0.00 0.00 0.00
0.31 0.32 0.32 0.23 0.17 0.11 0.06 0.04 0.04 0.05 0.05 0.05 0.04 0.02 0.01 0.01 0.01 0.00 0.00 0.00 0.00 0.00 0.00 0.00 0.00 0.00 0.00 0.00 0.00 0.00 0.00 0.00 0.00 0.00 0.00 0.00 0.00 0.00
0.35 0.33 0.30 0.24 0.17 0.12 0.06 0.05 0.04 0.03 0.03 0.03 0.04 0.02 0.01 0.01 0.00 0.00 0.00 0.00 0.00 0.00 0.00 0.00 0.00 0.00 0.00 0.00 0.00 0.00 0.00 0.00 0.00 0.00 0.00 0.00 0.00 0.00
0.34 0.31 0.25 0.20 0.14 0.10 0.05 0.03 0.03 0.03 0.02 0.02 0.02 0.02 0.01 0.01 0.00 0.00 0.00 0.00 0.00 0.00 0.00 0.00 0.00 0.00 0.00 0.00 0.00 0.00 0.00 0.00 0.00 0.00 0.00 0.00 0.00 0.00
0.29 0.29 0.23 0.16 0.10 0.07 0.04 0.02 0.02 0.01 0.01 0.01 0.01 0.01 0.01 0.00 0.00 0.00 0.00 0.00 0.00 0.00 0.00 0.00 0.00 0.00 0.00 0.00 0.00 0.00 0.00 0.00 0.00 0.00 0.00 0.00 0.00 0.00
0.24 0.24 0.19 0.12 0.07 0.04 0.03 0.01 0.01 0.00 0.00 0.00 0.00 0.00 0.00 0.00 0.00 0.00 0.00 0.00 0.00 0.00 0.00 0.00 0.00 0.00 0.00 0.00 0.00 0.00 0.00 0.00 0.00 0.00 0.00 0.00 0.00 0.00
0.17 0.18 0.15 0.09 0.05 0.02 0.01 0.00 0.00 0.00 0.00 0.00 0.00 0.00 0.00 0.00 0.00 0.00 0.00 0.00 0.00 0.00 0.00 0.00 0.00 0.00 0.00 0.00 0.00 0.00 0.00 0.00 0.00 0.00 0.00 0.00 0.00 0.00
0.10 0.11 0.09 0.07 0.03 0.01 0.00 0.00 0.00 0.00 0.00 0.00 0.00 0.00 0.00 0.00 0.00 0.00 0.00 0.00 0.00 0.00 0.00 0.00 0.00 0.00 0.00 0.00 0.00 0.00 0.00 0.00 0.00 0.00 0.00 0.00 0.00 0.00
MSLP
1008.29 1008.34 1008.46 1008.62 1008.80 1008.95 1009.03 1009.05 1009.00 1008.90 1008.78 1008.68 1008.62 1008.62 1008.69 1008.83 1009.02 1009.24 1009.47 1009.69 1009.87 1010.00 1010.07 1010.09 1010.05 1009.98 1009.88 1009.77 1009.68 1009.63 1009.64 1009.74 1009.93 1010.21 1010.59 1011.04 1011.54 1012.06
1007.89 1007.83 1007.86 1007.94 1008.06 1008.18 1008.28 1008.34 1008.37 1008.39 1008.40 1008.43 1008.51 1008.64 1008.82 1009.06 1009.32 1009.60 1009.87 1010.11 1010.31 1010.45 1010.53 1010.55 1010.51 1010.42 1010.29 1010.16 1010.03 1009.95 1009.92 1009.99 1010.15 1010.42 1010.78 1011.23 1011.74 1012.27
1007.49 1007.34 1007.27 1007.26 1007.31 1007.38 1007.47 1007.57 1007.67 1007.79 1007.93 1008.12 1008.34 1008.62 1008.94 1009.29 1009.65 1010.01 1010.33 1010.62 1010.85 1011.01 1011.10 1011.12 1011.08 1010.99 1010.86 1010.71 1010.57 1010.48 1010.44 1010.49 1010.64 1010.90 1011.26 1011.71 1012.22 1012.77
1007.07 1006.83 1006.67 1006.59 1006.56 1006.58 1006.65 1006.77 1006.92 1007.12 1007.38 1007.69 1008.07 1008.49 1008.95 1009.42 1009.89 1010.34 1010.74 1011.09 1011.36 1011.56 1011.68 1011.72 1011.70 1011.62 1011.51 1011.37 1011.25 1011.16 1011.13 1011.18 1011.33 1011.59 1011.95 1012.40 1012.91 1013.46
1006.60 1006.30 1006.08 1005.92 1005.83 1005.81 1005.85 1005.95 1006.13 1006.39 1006.73 1007.15 1007.64 1008.18 1008.77 1009.37 1009.95 1010.50 1011.00 1011.42 1011.76 1012.01 1012.18 1012.27 1012.29 1012.26 1012.18 1012.09 1011.99 1011.93 1011.93 1011.99 1012.15 1012.41 1012.77 1013.20 1013.70 1014.22
1006.06 1005.74 1005.48 1005.27 1005.13 1005.06 1005.07 1005.15 1005.33 1005.61 1005.99 1006.47 1007.05 1007.69 1008.38 1009.08 1009.78 1010.43 1011.02 1011.54 1011.96 1012.30 1012.54 1012.70 1012.80 1012.83 1012.82 1012.78 1012.75 1012.73 1012.76 1012.85 1013.02 1013.27 1013.61 1014.02 1014.48 1014.97
1005.47 1005.15 1004.87 1004.65 1004.48 1004.37 1004.34 1004.40 1004.55 1004.82 1005.21 1005.72 1006.33 1007.03 1007.79 1008.58 1009.36 1010.11 1010.80 1011.42 1011.94 1012.38 1012.72 1012.98 1013.17 1013.29 1013.37 1013.42 1013.45 1013.50 1013.57 1013.68 1013.86 1014.10 1014.41 1014.77 1015.19 1015.62
1004.84 1004.54 1004.28 1004.06 1003.88 1003.76 1003.70 1003.72 1003.85 1004.09 1004.46 1004.95 1005.57 1006.29 1007.09 1007.93 1008.78 1009.61 1010.39 1011.10 1011.72 1012.27 1012.72 1013.09 1013.39 1013.63 1013.81 1013.95 1014.07 1014.18 1014.30 1014.44 1014.62 1014.84 1015.11 1015.42 1015.77 1016.14
1004.20 1003.94 1003.71 1003.52 1003.36 1003.24 1003.17 1003.17 1003.27 1003.48 1003.81 1004.27 1004.87 1005.58 1006.38 1007.24 1008.13 1009.01 1009.86 1010.65 1011.37 1012.01 1012.58 1013.06 1013.47 1013.82 1014.12 1014.37 1014.57 1014.76 1014.93 1015.09 1015.27 1015.47 1015.70 1015.95 1016.23 1016.53
1003.56 1003.36 1003.18 1003.04 1002.92 1002.82 1002.77 1002.78 1002.86 1003.05 1003.35 1003.78 1004.34 1005.03 1005.81 1006.66 1007.56 1008.46 1009.34 1010.19 1010.97 1011.69 1012.34 1012.92 1013.44 1013.90 1014.29 1014.64 1014.94 1015.19 1015.42 1015.61 1015.80 1015.98 1016.16 1016.36 1016.58 1016.81
1002.96 1002.81 1002.69 1002.61 1002.55 1002.51 1002.51 1002.55 1002.65 1002.84 1003.13 1003.54 1004.08 1004.73 1005.48 1006.30 1007.17 1008.06 1008.95 1009.80 1010.61 1011.37 1012.07 1012.72 1013.31 1013.85 1014.34 1014.78 1015.15 1015.48 1015.75 1015.98 1016.18 1016.35 1016.51 1016.67 1016.84 1017.02
1002.38 1002.28 1002.24 1002.23 1002.25 1002.29 1002.36 1002.46 1002.62 1002.85 1003.16 1003.58 1004.10 1004.73 1005.44 1006.22 1007.05 1007.89 1008.73 1009.56 1010.35 1011.10 1011.81 1012.49 1013.12 1013.72 1014.27 1014.77 1015.22 1015.61 1015.94 1016.21 1016.43 1016.61 1016.76 1016.90 1017.05 1017.20
1001.83 1001.79 1001.81 1001.88 1001.98 1002.12 1002.29 1002.49 1002.73 1003.03 1003.40 1003.85 1004.39 1005.01 1005.69 1006.42 1007.18 1007.96 1008.73 1009.48 1010.21 1010.91 1011.59 1012.26 1012.90 1013.51 1014.10 1014.65 1015.15 1015.59 1015.97 1016.29 1016.54 1016.74 1016.91 1017.06 1017.20 1017.34
1001.31 1001.32 1001.41 1001.55 1001.75 1001.99 1002.27 1002.58 1002.93 1003.33 1003.78 1004.29 1004.86 1005.49 1006.15 1006.83 1007.53 1008.22 1008.89 1009.55 1010.19 1010.81 1011.42 1012.04 1012.65 1013.26 1013.85 1014.43 1014.96 1015.45 1015.87 1016.23 1016.53 1016.77 1016.96 1017.13 1017.28 1017.44
1000.86 1000.91 1001.05 1001.27 1001.55 1001.88 1002.27 1002.69 1003.16 1003.66 1004.21 1004.80 1005.42 1006.06 1006.72 1007.36 1007.99 1008.60 1009.17 1009.72 1010.25 1010.78 1011.31 1011.85 1012.41 1012.99 1013.57 1014.15 1014.70 1015.22 1015.68 1016.07 1016.41 1016.68 1016.91 1017.11 1017.29 1017.46
1000.49 1000.59 1000.77 1001.05 1001.39 1001.80 1002.28 1002.80 1003.37 1003.98 1004.62 1005.29 1005.96 1006.64 1007.29 1007.91 1008.48 1009.01 1009.50 1009.95 1010.38 1010.80 1011.25 1011.71 1012.22 1012.75 1013.31 1013.88 1014.43 1014.96 1015.43 1015.85 1016.21 1016.52 1016.77 1016.99 1017.19 1017.39
1000.27 1000.40 1000.62 1000.92 1001.31 1001.78 1002.31 1002.90 1003.55 1004.23 1004.95 1005.68 1006.41 1007.11 1007.77 1008.37 1008.91 1009.39 1009.80 1010.18 1010.53 1010.88 1011.25 1011.65 1012.10 1012.59 1013.12 1013.66 1014.20 1014.72 1015.19 1015.62 1015.98 1016.29 1016.55 1016.78 1016.99 1017.19
1000.21 1000.37 1000.62 1000.94 1001.34 1001.82 1002.38 1003.00 1003.68 1004.41 1005.17 1005.95 1006.70 1007.43 1008.10 1008.70 1009.22 1009.67 1010.05 1010.38 1010.69 1010.99 1011.32 1011.68 1012.09 1012.55 1013.04 1013.55 1014.06 1014.55 1015.00 1015.39 1015.73 1016.02 1016.26 1016.48 1016.68 1016.86
1000.33 1000.52 1000.78 1001.10 1001.49 1001.95 1002.50 1003.11 1003.79 1004.53 1005.30 1006.09 1006.86 1007.59 1008.27 1008.87 1009.39 1009.84 1010.21 1010.53 1010.83 1011.12 1011.44 1011.79 1012.18 1012.61 1013.07 1013.55 1014.01 1014.45 1014.85 1015.19 1015.48 1015.72 1015.92 1016.10 1016.26 1016.42
1000.59 1000.81 1001.06 1001.37 1001.73 1002.16 1002.67 1003.25 1003.89 1004.60 1005.35 1006.12 1006.88 1007.62 1008.29 1008.90 1009.43 1009.89 1010.28 1010.63 1010.94 1011.26 1011.58 1011.94 1012.33 1012.75 1013.18 1013.62 1014.03 1014.41 1014.73 1015.00 1015.21 1015.38 1015.52 1015.63 1015.74 1015.86
1000.93 1001.16 1001.42 1001.70 1002.03 1002.41 1002.86 1003.39 1003.98 1004.64 1005.34 1006.08 1006.81 1007.52 1008.19 1008.80 1009.35 1009.83 1010.25 1010.63 1010.99 1011.34 1011.70 1012.08 1012.48 1012.89 1013.30 1013.68 1014.04 1014.34 1014.58 1014.76 1014.89 1014.97 1015.03 1015.08 1015.14 1015.21
1001.25 1001.50 1001.75 1002.01 1002.30 1002.64 1003.04 1003.51 1004.04 1004.64 1005.29 1005.97 1006.67 1007.35 1008.00 1008.61 1009.16 1009.66 1010.12 1010.54 1010.94 1011.33 1011.73 1012.13 1012.54 1012.94 1013.32 1013.66 1013.95 1014.17 1014.33 1014.42 1014.46 1014.46 1014.45 1014.43 1014.44 1014.48
1001.47 1001.72 1001.96 1002.21 1002.48 1002.79 1003.15 1003.57 1004.05 1004.59 1005.19 1005.82 1006.47 1007.11 1007.73 1008.32 1008.87 1009.39 1009.86 1010.31 1010.75 1011.17 1011.60 1012.02 1012.43 1012.81 1013.16 1013.45 1013.68 1013.83 1013.91 1013.92 1013.88 1013.82 1013.74 1013.69 1013.66 1013.68
Thickness
5691 5692 5693 5695 5695 5694 5693 5691 5686 5684 5686 5690 5692 5694 5693 5692 5691 5690 5688 5688 5688 5688 5688 5688 5690 5692 5695 5698 5700 5703 5706 5708 5710 5711 5712 5712 5712 5712
5683 5685 5687 5690 5690 5691 5690 5689 5687 5684 5683 5686 5687 5688 5687 5685 5682 5681 5680 5679 5679 5680 5680 5680 5682 5684 5686 5688 5691 5694 5697 5700 5702 5703 5703 5704 5705 5705
5675 5678 5681 5684 5685 5686 5686 5686 5684 5683 5681 5682 5683 5682 5680 5677 5674 5672 5671 5671 5670 5670 5671 5671 5673 5674 5676 5679 5682 5684 5687 5689 5692 5693 5694 5694 5695 5695
5665 5669 5673 5677 5679 5681 5681 5682 5681 5681 5679 5678 5677 5675 5673 5670 5667 5665 5663 5661 5661 5660 5661 5662 5663 5664 5666 5668 5671 5673 5676 5678 5680 5682 5683 5684 5684 5685
5655 5659 5665 5669 5672 5674 5676 5677 5678 5679 5678 5676 5673 5670 5667 5664 5660 5657 5654 5652 5651 5650 5650 5651 5652 5654 5656 5658 5660 5662 5664 5666 5668 5669 5671 5672 5672 5673
5644 5650 5656 5662 5666 5668 5671 5673 5674 5673 5673 5672 5669 5665 5661 5658 5654 5650 5645 5643 5643 5642 5641 5641 5642 5643 5645 5647 5649 5651 5652 5654 5656 5657 5659 5659 5660 5660
5631 5640 5648 5655 5660 5664 5666 5668 5669 5668 5668 5667 5664 5661 5657 5653 5649 5645 5640 5636 5634 5633 5633 5632 5633 5634 5635 5636 5638 5640 5642 5643 5644 5646 5647 5648 5648 5648
5617 5627 5636 5645 5652 5657 5661 5664 5666 5665 5664 5663 5661 5658 5655 5651 5647 5642 5637 5633 5627 5625 5626 5624 5624 5624 5625 5627 5628 5630 5632 5633 5634 5635 5636 5636 5637 5638
5602 5613 5624 5634 5642 5647 5653 5657 5660 5663 5664 5663 5660 5658 5654 5651 5645 5639 5634 5631 5628 5623 5621 5616 5615 5616 5617 5618 5619 5621 5622 5624 5625 5626 5626 5627 5627 5628
5588 5599 5610 5620 5630 5637 5643 5647 5651 5655 5658 5659 5659 5657 5654 5649 5645 5639 5632 5625 5621 5618 5618 5612 5609 5608 5609 5609 5611 5612 5613 5615 5616 5617 5618 5618 5619 5619
5575 5587 5598 5609 5619 5627 5633 5638 5642 5646 5650 5653 5653 5651 5648 5643 5639 5632 5625 5621 5614 5610 5611 5609 5603 5601 5601 5601 5602 5604 5605 5606 5607 5609 5610 5610 5611 5611
5563 5575 5587 5598 5607 5615 5624 5630 5634 5637 5641 5642 5642 5641 5639 5636 5633 5631 5627 5620 5613 5607 5607 5605 5600 5598 5594 5593 5595 5596 5598 5599 5600 5601 5603 5603 5604 5604
5553 5565 5577 5587 5595 5605 5614 5622 5628 5630 5632 5634 5633 5632 5630 5627 5625 5624 5623 5620 5614 5609 5607 5604 5598 5596 5594 5589 5589 5590 5592 5593 5594 5595 5596 5597 5597 5598
5546 5557 5568 5577 5585 5594 5604 5612 5616 5621 5624 5625 5624 5623 5621 5619 5618 5617 5615 5614 5613 5612 5608 5605 5599 5595 5592 5587 5585 5586 5587 5588 5589 5589 5590 5590 5590 5591
5539 5549 5559 5567 5575 5585 5594 5601 5607 5613 5615 5616 5615 5614 5613 5613 5611 5608 5607 5606 5605 5604 5603 5603 5600 5596 5593 5588 5584 5583 5582 5583 5584 5585 5585 5585 5585 5585
5532 5541 5550 5558 5569 5578 5585 5592 5599 5605 5608 5609 5606 5605 5604 5604 5603 5603 5600 5599 5596 5592 5594 5597 5598 5595 5588 5586 5584 5580 5580 5580 5580 5580 5580 5580 5580 5580
5527 5535 5543 5553 5563 5571 5578 5585 5590 5595 5597 5598 5598 5597 5597 5596 5594 5594 5594 5592 5589 5586 5584 5586 5589 5589 5588 5584 5579 5577 5576 5576 5577 5576 5575 5573 5573 5573
5524 5533 5541 5551 5560 5568 5574 5579 5583 5588 5590 5592 5591 5591 5590 5589 5587 5586 5586 5585 5583 5580 5580 5579 5580 5578 5576 5574 5577 5574 5573 5572 5572 5572 5571 5568 5567 5567
5523 5532 5540 5549 5558 5565 5570 5575 5578 5581 5584 5586 5585 5584 5584 5582 5581 5580 5579 5578 5576 5575 5574 5575 5575 5573 5570 5567 5569 5572 5570 5568 5567 5566 5565 5564 5562 5563
5524 5532 5540 5548 5555 5562 5567 5571 5573 5576 5578 5579 5579 5578 5578 5577 5576 5575 5574 5573 5571 5569 5568 5569 5571 5571 5569 5567 5566 5567 5569 5566 5563 5561 5560 5558 5557 5557
5527 5534 5541 5548 5555 5561 5565 5569 5571 5573 5575 5575 5575 5574 5574 5573 5572 5571 5571 5570 5568 5567 5566 5567 5569 5570 5568 5565 5562 5562 5563 5564 5563 5559 5556 5551 5549 5547
5530 5537 5542 5548 5555 5560 5564 5567 5569 5571 5571 5572 5572 5572 5572 5571 5571 5570 5569 5568 5567 5567 5567 5565 5565 5564 5562 5560 5559 5559 5558 5558 5557 5556 5554 5552 5546 5542
5534 5540 5546 5551 5556 5560 5564 5567 5569 5569 5570 5571 5571 5571 5571 5570 5570 5570 5569 5568 5566 5565 5563 5560 5559 5559 5558 5557 5556 5554 5554 5552 5550 5547 5547 5549 5546 5545